H1 CPF 2 NER 2024 3 30 9 090 01 glonass143 H2 2007501 9143 46805 2024 3 30 0 0 0 2024 4 2 23 45 0 900 1 1 0 0 0 1 H9 10 0 60399 0.00000 0 10665476.215 15949627.908 16825717.841 10 0 60399 900.00000 0 8802899.571 14776333.437 18851858.897 10 0 60399 1800.00000 0 6655634.399 13643158.955 20512326.377 10 0 60399 2700.00000 0 4264824.484 12601947.411 21774900.280 10 0 60399 3600.00000 0 1681620.253 11697078.876 22615063.820 10 0 60399 4500.00000 0 -1034692.889 10963608.444 23016477.812 10 0 60399 5400.00000 0 -3818906.615 10425813.112 22971298.636 10 0 60399 6300.00000 0 -6602351.715 10096208.225 22480333.713 10 0 60399 7200.00000 0 -9315509.245 9975074.548 21553031.345 10 0 60399 8100.00000 0 -11890663.654 10050515.851 20207304.650 10 0 60399 9000.00000 0 -14264488.765 10299044.776 18469192.333 10 0 60399 9900.00000 0 -16380459.910 10686672.738 16372362.007 10 0 60399 10800.00000 0 -18190992.399 11170458.403 13957464.751 10 0 60399 11700.00000 0 -19659217.569 11700449.911 11271352.519 10 0 60399 12600.00000 0 -20760322.357 12221939.193 8366172.864 10 0 60399 13500.00000 0 -21482396.457 12677933.224 5298358.036 10 0 60399 14400.00000 0 -21826751.559 13011737.569 2127527.892 10 0 60399 15300.00000 0 -21807699.349 13169542.396 -1084671.907 10 0 60399 16200.00000 0 -21451797.808 13102900.725 -4275773.387 10 0 60399 17100.00000 0 -20796597.891 12770992.986 -7383707.354 10 0 60399 18000.00000 0 -19888943.935 12142580.846 -10348017.484 10 0 60399 18900.00000 0 -18782900.130 11197566.407 -13111042.896 10 0 60399 19800.00000 0 -17537391.245 9928089.589 -15619045.462 10 0 60399 20700.00000 0 -16213657.852 8339116.173 -17823259.209 10 0 60399 21600.00000 0 -14872633.984 6448490.605 -19680841.059 10 0 60399 22500.00000 0 -13572358.179 4286450.313 -21155704.301 10 0 60399 23400.00000 0 -12365527.164 1894621.029 -22219218.663 10 0 60399 24300.00000 0 -11297295.079 -675465.550 -22850763.753 10 0 60399 25200.00000 0 -10403410.426 -3364270.544 -23038125.572 10 0 60399 26100.00000 0 -9708768.512 -6106484.455 -22777728.912 10 0 60399 27000.00000 0 -9226439.391 -8833508.916 -22074701.670 10 0 60399 27900.00000 0 -8957211.231 -11476080.919 -20942770.216 10 0 60399 28800.00000 0 -8889667.293 -13966930.921 -19403988.219 10 0 60399 29700.00000 0 -9000792.315 -16243364.887 -17488304.327 10 0 60399 30600.00000 0 -9257081.824 -18249663.577 -15232977.197 10 0 60399 31500.00000 0 -9616106.865 -19939199.891 -12681849.223 10 0 60399 32400.00000 0 -10028467.476 -21276186.899 -9884493.015 10 0 60399 33300.00000 0 -10440051.945 -22236984.536 -6895247.184 10 0 60399 34200.00000 0 -10794506.006 -22810911.343 -3772160.178 10 0 60399 35100.00000 0 -11035807.333 -23000528.337 -575862.777 10 0 60399 36000.00000 0 -11110836.235 -22821384.169 2631608.752 10 0 60399 36900.00000 0 -10971833.700 -22301233.259 5788015.790 10 0 60399 37800.00000 0 -10578642.665 -21478760.656 8832123.325 10 0 60399 38700.00000 0 -9900637.623 -20401867.927 11704885.278 10 0 60399 39600.00000 0 -8918260.757 -19125592.637 14350586.234 10 0 60399 40500.00000 0 -7624099.433 -17709749.133 16717917.680 10 0 60399 41400.00000 0 -6023458.987 -16216389.698 18760968.262 10 0 60399 42300.00000 0 -4134405.889 -14707192.455 20440109.369 10 0 60399 43200.00000 0 -1987278.367 -13240885.101 21722759.491 10 0 60399 44100.00000 0 376316.402 -11870811.841 22584013.149 10 0 60399 45000.00000 0 2904978.130 -10642744.749 23007122.740 10 0 60399 45900.00000 0 5539402.401 -9593030.467 22983824.312 10 0 60399 46800.00000 0 8214605.792 -8747149.180 22514501.117 10 0 60399 47700.00000 0 10862396.164 -8118745.669 21608181.592 10 0 60399 48600.00000 0 13413986.831 -7709172.685 20282371.399 10 0 60399 49500.00000 0 15802647.164 -7507565.572 18562722.091 10 0 60399 50400.00000 0 17966280.222 -7491445.002 16482541.953 10 0 60399 51300.00000 0 19849820.753 -7627822.546 14082157.617 10 0 60399 52200.00000 0 21407353.891 -7874762.667 11408137.847 10 0 60399 53100.00000 0 22603866.136 -8183335.354 8512393.897 10 0 60399 54000.00000 0 23416555.302 -8499876.884 5451173.336 10 0 60399 54900.00000 0 23835644.372 -8768462.928 2283966.694 10 0 60399 55800.00000 0 23864664.888 -8933488.846 -927651.692 10 0 60399 56700.00000 0 23520197.918 -8942247.168 -4121225.664 10 0 60399 57600.00000 0 22831083.538 -8747392.156 -7234638.042 10 0 60399 58500.00000 0 21837132.360 -8309185.904 -10207325.612 10 0 60399 59400.00000 0 20587393.798 -7597429.642 -12981463.838 10 0 60399 60300.00000 0 19138054.575 -6592997.270 -15503097.417 10 0 60399 61200.00000 0 17550056.576 -5288905.048 -17723194.056 10 0 60399 62100.00000 0 15886534.937 -3690871.135 -19598600.539 10 0 60399 63000.00000 0 14210184.569 -1817340.288 -21092882.378 10 0 60399 63900.00000 0 12580666.128 301028.291 -22177030.792 10 0 60399 64800.00000 0 11052160.334 2622389.357 -22830023.586 10 0 60399 65700.00000 0 9671173.029 5095214.032 -23039229.551 10 0 60399 66600.00000 0 8474682.440 7660204.087 -22800648.974 10 0 60399 67500.00000 0 7488705.489 10252538.881 -22118986.176 10 0 60399 68400.00000 0 6727342.199 12804361.884 -21007553.076 10 0 60399 69300.00000 0 6192337.061 15247403.758 -19488005.977 10 0 60399 70200.00000 0 5873174.508 17515633.313 -17589920.904 10 0 60399 71100.00000 0 5747703.167 19547826.540 -15350215.778 10 0 60399 72000.00000 0 5783261.468 21289947.192 -12812430.689 10 0 60399 72900.00000 0 5938256.130 22697240.319 -10025880.183 10 0 60399 73800.00000 0 6164126.008 23735952.009 -7044693.998 10 0 60399 74700.00000 0 6407607.716 24384604.212 -3926764.929 10 0 60399 75600.00000 0 6613206.670 24634772.075 -732624.314 10 0 60399 76500.00000 0 6725768.670 24491332.064 2475732.903 10 0 60399 77400.00000 0 6693042.927 23972171.231 5636050.513 10 0 60399 78300.00000 0 6468127.870 23107370.614 8687017.360 10 0 60399 79200.00000 0 6011696.121 21937897.636 11569454.173 10 0 60399 80100.00000 0 5293904.345 20513862.879 14227457.902 10 0 60399 81000.00000 0 4295907.024 18892414.619 16609481.617 10 0 60399 81900.00000 0 3010909.820 17135359.439 18669329.404 10 0 60399 82800.00000 0 1444717.474 15306608.426 20367047.464 10 0 60399 83700.00000 0 -384247.736 13469555.423 21669694.731 10 0 60399 84600.00000 0 -2445459.006 11684496.374 22551978.714 10 0 60399 85500.00000 0 -4697309.426 10006196.902 22996744.747 10 0 60400 0.00000 0 -7088606.435 8481709.027 22995309.566 10 0 60400 900.00000 0 -9560476.949 7148526.634 22547632.827 10 0 60400 1800.00000 0 -12048602.232 6033157.960 21662323.190 10 0 60400 2700.00000 0 -14485695.245 5150171.453 20356478.454 10 0 60400 3600.00000 0 -16804115.508 4501756.454 18655362.074 10 0 60400 4500.00000 0 -18938514.848 4077815.925 16591921.547 10 0 60400 5400.00000 0 -20828404.283 3856587.237 14206157.087 10 0 60400 6300.00000 0 -22420535.302 3805764.733 11544351.886 10 0 60400 7200.00000 0 -23670996.104 3884076.683 8658178.161 10 0 60400 8100.00000 0 -24546934.875 4043249.882 5603695.824 10 0 60400 9000.00000 0 -25027837.565 4230278.548 2440262.936 10 0 60400 9900.00000 0 -25106306.068 4389901.074 -770620.709 10 0 60400 10800.00000 0 -24788303.761 4467179.001 -3966514.017 10 0 60400 11700.00000 0 -24092857.786 4410068.096 -7085255.044 10 0 60400 12600.00000 0 -23051230.509 4171871.466 -10066176.855 10 0 60400 13500.00000 0 -21705595.151 3713469.652 -12851294.300 10 0 60400 14400.00000 0 -20107271.597 3005232.005 -15386437.781 10 0 60400 15300.00000 0 -18314597.043 2028527.306 -17622311.305 10 0 60400 16200.00000 0 -16390521.452 776768.622 -19515453.793 10 0 60400 17100.00000 0 -14400029.218 -744052.745 -21029084.833 10 0 60400 18000.00000 0 -12407495.549 -2515367.704 -22133818.494 10 0 60400 18900.00000 0 -10474088.434 -4506565.079 -22808231.630 10 0 60400 19800.00000 0 -8655324.774 -6676040.951 -23039276.129 10 0 60400 20700.00000 0 -6998882.513 -8972718.378 -22822527.573 10 0 60400 21600.00000 0 -5542759.457 -11337974.644 -22162266.038 10 0 60400 22500.00000 0 -4313854.744 -13707896.152 -21071387.881 10 0 60400 23400.00000 0 -3327031.063 -16015767.388 -19571150.569 10 0 60400 24300.00000 0 -2584695.433 -18194690.648 -17690755.707 10 0 60400 25200.00000 0 -2076914.641 -20180227.782 -15466778.450 10 0 60400 26100.00000 0 -1782058.989 -21912954.106 -12942454.368 10 0 60400 27000.00000 0 -1667945.880 -23340818.392 -10166837.624 10 0 60400 27900.00000 0 -1693433.836 -24421210.757 -7193846.716 10 0 60400 28800.00000 0 -1810398.649 -25122652.478 -4081216.411 10 0 60400 29700.00000 0 -1966007.348 -25426037.527 -889376.259 10 0 60400 30600.00000 0 -2105193.212 -25325374.344 2319722.415 10 0 60400 31500.00000 0 -2173226.652 -24827997.318 5483808.072 10 0 60400 32400.00000 0 -2118272.861 -23954239.628 8541495.642 10 0 60400 33300.00000 0 -1893827.789 -22736581.609 11433474.840 10 0 60400 34200.00000 0 -1460929.247 -21218310.713 14103657.109 10 0 60400 35100.00000 0 -790049.501 -19451749.390 16500259.144 10 0 60400 36000.00000 0 137410.872 -17496125.099 18576802.389 10 0 60400 36900.00000 0 1328091.294 -15415171.347 20293009.588 10 0 60400 37800.00000 0 2776145.817 -13274559.565 21615581.641 10 0 60400 38700.00000 0 4463247.144 -11139268.442 22518840.311 10 0 60400 39600.00000 0 6359121.100 -9070999.672 22985224.865 10 0 60400 40500.00000 0 8422590.667 -7125746.997 23005633.399 10 0 60400 41400.00000 0 10603087.564 -5351618.917 22579602.408 10 0 60400 42300.00000 0 12842569.913 -3787004.971 21715320.986 10 0 60400 43200.00000 0 15077767.580 -2459161.239 20429478.975 10 0 60400 44100.00000 0 17242663.003 -1383273.372 18746951.380 10 0 60400 45000.00000 0 19271105.131 -562035.780 16700324.277 10 0 60400 45900.00000 0 21099448.228 14235.923 14329270.549 10 0 60400 46800.00000 0 22669105.762 366964.298 11679786.572 10 0 60400 47700.00000 0 23928912.629 528168.566 8803303.948 10 0 60400 48600.00000 0 24837196.585 538870.654 5755692.975 10 0 60400 49500.00000 0 25363471.563 447116.502 2596176.946 10 0 60400 50400.00000 0 25489681.159 305696.809 -613821.508 10 0 60400 51300.00000 0 25210939.396 169664.411 -3811879.220 10 0 60400 52200.00000 0 24535737.036 93754.277 -6935792.490 10 0 60400 53100.00000 0 23485604.330 129816.498 -9924793.717 10 0 60400 54000.00000 0 22094244.128 324372.113 -12720740.121 10 0 60400 54900.00000 0 20406171.815 716396.491 -15269250.649 10 0 60400 55800.00000 0 18474919.333 1335425.220 -17520768.239 10 0 60400 56700.00000 0 16360879.015 2200063.698 -19431526.355 10 0 60400 57600.00000 0 14128877.929 3316964.365 -20964400.827 10 0 60400 58500.00000 0 11845584.648 4680315.625 -22089630.488 10 0 60400 59400.00000 0 9576857.053 6271864.780 -22785392.894 10 0 60400 60300.00000 0 7385141.916 8061474.769 -23038224.399 10 0 60400 61200.00000 0 5327034.532 10008192.006 -22843276.925 10 0 60400 62100.00000 0 3451099.579 12061781.167 -22204406.985 10 0 60400 63000.00000 0 1796043.195 14164663.280 -21134095.664 10 0 60400 63900.00000 0 389311.380 16254176.536 -19653201.458 10 0 60400 64800.00000 0 -753828.161 18265065.793 -17790550.999 10 0 60400 65700.00000 0 -1630683.931 20132097.173 -15582375.670 10 0 60400 66600.00000 0 -2251003.252 21792688.784 -13071605.120 10 0 60400 67500.00000 0 -2636306.982 23189447.938 -10307031.310 10 0 60400 68400.00000 0 -2818725.823 24272509.021 -7342359.328 10 0 60400 69300.00000 0 -2839388.575 25001574.393 -4235163.423 10 0 60400 70200.00000 0 -2746431.470 25347573.172 -1045768.607 10 0 60400 71100.00000 0 -2592713.572 25293868.618 2163920.361 10 0 60400 72000.00000 0 -2433335.507 24836963.817 5331619.679 10 0 60400 72900.00000 0 -2323066.953 23986676.346 8395873.462 10 0 60400 73800.00000 0 -2313792.014 22765774.813 11297243.496 10 0 60400 74700.00000 0 -2452080.711 21209092.678 13979458.711 10 0 60400 75600.00000 0 -2776989.374 19362156.486 16390502.300 10 0 60400 76500.00000 0 -3318182.980 17279385.778 18483615.768 10 0 60400 77400.00000 0 -4094458.898 15021939.631 20218200.928 10 0 60400 78300.00000 0 -5112734.679 12655299.212 21560602.944 10 0 60400 79200.00000 0 -6367543.135 10246686.462 22484759.877 10 0 60400 80100.00000 0 -7841056.850 7862425.668 22972706.667 10 0 60400 81000.00000 0 -9503642.298 5565356.759 23014924.173 10 0 60400 81900.00000 0 -11314921.756 3412407.013 22610526.689 10 0 60400 82800.00000 0 -13225300.129 1452421.213 21767284.200 10 0 60400 83700.00000 0 -15177894.359 -275660.340 20501478.546 10 0 60400 84600.00000 0 -17110786.302 -1744200.909 18837595.661 10 0 60400 85500.00000 0 -18959506.081 -2937785.844 16807859.032 10 0 60401 0.00000 0 -20659642.929 -3853622.701 14451612.707 10 0 60401 900.00000 0 -22149475.709 -4501407.215 11814563.608 10 0 60401 1800.00000 0 -23372510.889 -4902660.040 8947900.276 10 0 60401 2700.00000 0 -24279824.411 -5089564.238 5907300.428 10 0 60401 3600.00000 0 -24832106.349 -5103351.747 2751849.376 10 0 60401 4500.00000 0 -25001322.661 -4992308.065 -457110.783 10 0 60401 5400.00000 0 -24771923.157 -4809480.141 -3657178.266 10 0 60401 6300.00000 0 -24141544.025 -4610185.312 -6786111.104 10 0 60401 7200.00000 0 -23121174.555 -4449427.778 -9783044.475 10 0 60401 8100.00000 0 -21734780.506 -4379333.089 -12589681.339 10 0 60401 9000.00000 0 -20018399.497 -4446710.422 -15151432.388 10 0 60401 9900.00000 0 -18018746.298 -4690846.892 -17418482.445 10 0 60401 10800.00000 0 -15791386.522 -5141628.225 -19346762.119 10 0 60401 11700.00000 0 -13398555.352 -5818066.075 -20898805.627 10 0 60401 12600.00000 0 -10906712.749 -6727294.941 -22044478.181 10 0 60401 13500.00000 0 -8383937.378 -7864081.600 -22761559.048 10 0 60401 14400.00000 0 -5897267.951 -9210868.317 -23036169.449 10 0 60401 15300.00000 0 -3510102.594 -10738348.477 -22863037.463 10 0 60401 16200.00000 0 -1279764.068 -12406550.961 -22245595.307 10 0 60401 17100.00000 0 744668.564 -14166388.185 -21195907.591 10 0 60401 18000.00000 0 2524172.492 -15961603.326 -19734432.238 10 0 60401 18900.00000 0 4031163.748 -17731035.519 -17889618.972 10 0 60401 19800.00000 0 5250393.610 -19411108.488 -15697353.226 10 0 60401 20700.00000 0 6179322.994 -20938438.653 -13200256.331 10 0 60401 21600.00000 0 6827960.862 -22252453.684 -10446855.527 10 0 60401 22500.00000 0 7218175.091 -23297911.967 -7490639.873 10 0 60401 23400.00000 0 7382506.312 -24027217.473 -4389020.442 10 0 60401 24300.00000 0 7362536.060 -24402433.062 -1202215.053 10 0 60401 25200.00000 0 7206879.211 -24396907.851 2007920.719 10 0 60401 26100.00000 0 6968886.374 -23996450.398 5179093.349 10 0 60401 27000.00000 0 6704154.015 -23199998.572 8249778.577 10 0 60401 27900.00000 0 6467947.992 -22019757.969 11160412.567 10 0 60401 28800.00000 0 6312649.679 -20480803.041 13854543.885 10 0 60401 29700.00000 0 6285332.687 -18620157.478 16279924.169 10 0 60401 30600.00000 0 6425572.580 -16485392.005 18389516.719 10 0 60401 31500.00000 0 6763582.053 -14132797.748 20142403.879 10 0 60401 32400.00000 0 7318750.297 -11625210.763 21504576.262 10 0 60401 33300.00000 0 8098648.388 -9029577.596 22449589.108 10 0 60401 34200.00000 0 9098543.066 -6414362.294 22959073.606 10 0 60401 35100.00000 0 10301440.121 -3846901.680 23023093.656 10 0 60401 36000.00000 0 11678656.659 -1390817.729 22640341.358 10 0 60401 36900.00000 0 13190899.485 896406.474 21818167.340 10 0 60401 37800.00000 0 14789805.811 2965587.432 20572444.962 10 0 60401 38700.00000 0 16419883.128 4777649.670 18927270.415 10 0 60401 39600.00000 0 18020768.225 6305007.321 16914503.708 10 0 60401 40500.00000 0 19529711.726 7532461.966 14573158.523 10 0 60401 41400.00000 0 20884184.697 8457579.773 11948651.868 10 0 60401 42300.00000 0 22024498.218 9090532.643 9091927.288 10 0 60401 43200.00000 0 22896325.874 9453410.562 6058468.131 10 0 60401 44100.00000 0 23453022.684 9579034.595 2907219.678 10 0 60401 45000.00000 0 23657642.158 9509321.148 -300558.774 10 0 60401 45900.00000 0 23484565.658 9293267.294 -3502489.275 10 0 60401 46800.00000 0 22920674.420 8984643.118 -6636294.141 10 0 60401 47700.00000 0 21966013.863 8639489.676 -9641013.917 10 0 60401 48600.00000 0 20633921.305 8313529.463 -12458199.834 10 0 60401 49500.00000 0 18950610.981 8059600.080 -15033056.749 10 0 60401 50400.00000 0 16954233.262 7925220.668 -17315513.634 10 0 60401 51300.00000 0 14693447.210 7950394.992 -19261200.329 10 0 60401 52200.00000 0 12225566.080 8165744.772 -20832311.367 10 0 60401 53100.00000 0 9614353.319 8591052.724 -21998340.089 10 0 60401 54000.00000 0 6927561.025 9234277.240 -22736669.067 10 0 60401 54900.00000 0 4234313.435 10091080.570 -23033005.787 10 0 60401 55800.00000 0 1602444.223 11144890.632 -22881655.628 10 0 60401 56700.00000 0 -904102.008 12367494.050 -22285627.375 10 0 60401 57600.00000 0 -3227696.584 13720135.702 -21256569.663 10 0 60401 58500.00000 0 -5319181.891 15155078.765 -19814539.946 10 0 60401 59400.00000 0 -7139666.215 16617559.966 -17987610.716 10 0 60401 60300.00000 0 -8661884.888 18048058.157 -15811320.708 10 0 60401 61200.00000 0 -9871072.453 19384781.157 -13327981.792 10 0 60401 62100.00000 0 -10765311.038 20566266.602 -10585854.966 10 0 60401 63000.00000 0 -11355342.033 21533987.708 -7638211.417 10 0 60401 63900.00000 0 -11663850.579 22234854.512 -4542296.926 10 0 60401 64800.00000 0 -11724254.448 22623505.518 -1358219.758 10 0 60401 65700.00000 0 -11579049.653 22664293.435 1852216.245 10 0 60401 66600.00000 0 -11277783.612 22332881.429 5026710.532 10 0 60401 67500.00000 0 -10874742.272 21617382.764 8103673.284 10 0 60401 68400.00000 0 -10426449.452 20518995.755 11023417.923 10 0 60401 69300.00000 0 -9989084.350 19052107.186 13729315.559 10 0 60401 70200.00000 0 -9615926.442 17243859.470 16168889.172 10 0 60401 71100.00000 0 -9354935.565 15133199.222 18294826.674 10 0 60401 72000.00000 0 -9246569.206 12769446.373 20065893.653 10 0 60401 72900.00000 0 -9321928.849 10210442.791 21447728.717 10 0 60401 73800.00000 0 -9601313.435 7520356.579 22413506.606 10 0 60401 74700.00000 0 -10093240.939 4767232.435 22944456.797 10 0 60401 75600.00000 0 -10793979.546 2020388.737 23030227.924 10 0 60401 76500.00000 0 -11687608.766 -652231.709 22669091.179 10 0 60401 77400.00000 0 -12746608.742 -3186648.371 21867978.647 10 0 60401 78300.00000 0 -13932954.103 -5525260.828 20642355.512 10 0 60401 79200.00000 0 -15199667.584 -7618998.249 19015927.978 10 0 60401 80100.00000 0 -16492769.352 -9429111.909 17020191.777 10 0 60401 81000.00000 0 -17753541.199 -10928536.808 14693829.119 10 0 60401 81900.00000 0 -18921011.252 -12102766.107 12081964.835 10 0 60401 82800.00000 0 -19934555.162 -12950202.343 9235295.396 10 0 60401 83700.00000 0 -20736504.412 -13481971.121 6209107.123 10 0 60401 84600.00000 0 -21274651.592 -13721205.599 3062202.326 10 0 60401 85500.00000 0 -21504546.397 -13701832.396 -144245.687 10 0 60402 0.00000 0 -21391484.677 -13466910.777 -3347885.856 10 0 60402 900.00000 0 -20912105.433 -13066595.809 -6486408.824 10 0 60402 1800.00000 0 -20055527.458 -12555812.795 -9498763.731 10 0 60402 2700.00000 0 -18823976.420 -11991741.851 -12326353.590 10 0 60402 3600.00000 0 -17232874.986 -11431220.253 -14914180.852 10 0 60402 4500.00000 0 -15310391.363 -10928173.281 -17211921.890 10 0 60402 5400.00000 0 -13096464.532 -10531183.023 -19174908.739 10 0 60402 6300.00000 0 -10641346.529 -10281298.509 -20764998.800 10 0 60402 7200.00000 0 -8003722.465 -10210180.172 -21951315.600 10 0 60402 8100.00000 0 -5248486.522 -10338657.153 -22710846.483 10 0 60402 9000.00000 0 -2444266.465 -10675758.424 -23028886.056 10 0 60402 9900.00000 0 339200.530 -11218258.505 -22899317.253 10 0 60402 10800.00000 0 3033731.944 -11950756.796 -22324725.108 10 0 60402 11700.00000 0 5575293.693 -12846287.074 -21316341.459 10 0 60402 12600.00000 0 7906416.480 -13867431.398 -19893822.034 10 0 60402 13500.00000 0 9978335.239 -14967891.475 -18084860.450 10 0 60402 14400.00000 0 11752763.750 -16094451.400 -15924646.772 10 0 60402 15300.00000 0 13203231.804 -17189249.165 -13455181.126 10 0 60402 16200.00000 0 14315930.586 -18192261.424 -10724455.714 10 0 60402 17100.00000 0 15090032.487 -19043896.943 -7785521.064 10 0 60402 18000.00000 0 15537473.494 -19687589.547 -4695454.674 10 0 60402 18900.00000 0 15682208.820 -20072281.362 -1514252.139 10 0 60402 19800.00000 0 15558974.448 -20154691.711 1696337.602 10 0 60402 20700.00000 0 15211607.927 -19901275.976 4874010.123 10 0 60402 21600.00000 0 14691000.176 -19289791.806 7957113.074 10 0 60402 22500.00000 0 14052765.378 -18310406.515 10885839.968 10 0 60402 23400.00000 0 13354727.733 -16966298.770 13603387.026 10 0 60402 24300.00000 0 12654331.290 -15273728.822 16057050.810 10 0 60402 25200.00000 0 12006082.053 -13261573.723 18199245.732 10 0 60402 26100.00000 0 11459130.011 -10970346.189 19988422.130 10 0 60402 27000.00000 0 11055092.653 -8450737.168 21389867.705 10 0 60402 27900.00000 0 10826211.264 -5761741.780 22376377.412 10 0 60402 28800.00000 0 10793917.365 -2968445.481 22928779.336 10 0 60402 29700.00000 0 10967869.479 -139561.197 23036306.800 10 0 60402 30600.00000 0 11345500.833 2655181.550 22696809.700 10 0 60402 31500.00000 0 11912097.409 5347688.409 21916800.895 10 0 60402 32400.00000 0 12641403.648 7874083.927 20711336.440 10 0 60402 33300.00000 0 13496731.172 10177121.002 19103731.376 10 0 60402 34200.00000 0 14432524.788 12208316.739 17125115.787 10 0 60402 35100.00000 0 15396320.783 13929726.520 14813838.854 10 0 60402 36000.00000 0 16331015.840 15315282.868 12214731.522 10 0 60402 36900.00000 0 17177351.486 16351643.570 9378241.309 10 0 60402 37800.00000 0 17876509.545 17038513.918 6359455.481 10 0 60402 38700.00000 0 18372708.937 17388429.885 3217031.203 10 0 60402 39600.00000 0 18615693.674 17426011.741 12053.522 10 0 60402 40500.00000 0 18563006.174 17186720.019 -3193156.311 10 0 60402 41400.00000 0 18181948.788 16715166.899 -6336258.456 10 0 60402 42300.00000 0 17451149.521 16063055.020 -9356113.516 10 0 60402 43200.00000 0 16361664.590 15286831.629 -12193978.462 10 0 60402 44100.00000 0 14917570.100 14445158.060 -14794655.354 10 0 60402 45000.00000 0 13136016.820 13596302.341 -17107569.811 10 0 60402 45900.00000 0 11046744.788 12795565.839 -19087757.731 10 0 60402 46800.00000 0 8691077.321 12092853.180 -20696740.902 10 0 60402 47700.00000 0 6120435.936 11530488.413 -21903274.407 10 0 60402 48600.00000 0 3394437.794 11141369.619 -22683951.602 10 0 60402 49500.00000 0 578654.600 10947539.685 -23023655.296 10 0 60402 50400.00000 0 -2257874.018 10959233.171 -22915846.865 10 0 60402 51300.00000 0 -5045269.594 11174438.984 -22362688.212 10 0 60402 52200.00000 0 -7715477.607 11578996.807 -21374994.688 10 0 60402 53100.00000 0 -10204853.855 12147222.721 -19972020.227 10 0 60402 54000.00000 0 -12456567.716 12843037.271 -18181079.133 10 0 60402 54900.00000 0 -14422723.274 13621548.084 -16037011.969 10 0 60402 55800.00000 0 -16066111.080 14431020.118 -13581505.956 10 0 60402 56700.00000 0 -17361518.736 15215150.299 -10862283.053 10 0 60402 57600.00000 0 -18296546.937 15915550.525 -7932171.441 10 0 60402 58500.00000 0 -18871898.198 16474334.185 -4848078.459 10 0 60402 59400.00000 0 -19101127.565 16836697.014 -1669885.003 10 0 60402 60300.00000 0 -19009867.125 16953383.237 1540717.073 10 0 60402 61200.00000 0 -18634558.096 16782932.841 4721421.782 10 0 60402 62100.00000 0 -18020744.907 16293614.993 7810516.689 10 0 60402 63000.00000 0 -17221003.896 15464965.820 10748077.966 10 0 60402 63900.00000 0 -16292594.448 14288865.429 13477129.601 10 0 60402 64800.00000 0 -15294931.802 12770108.355 15944744.447 10 0 60402 65700.00000 0 -14286987.997 10926442.777 18103066.109 10 0 60402 66600.00000 0 -13324730.168 8788076.029 19910232.280 10 0 60402 67500.00000 0 -12458703.597 6396666.024 21331182.209 10 0 60402 68400.00000 0 -11731860.652 3803839.486 22338333.288 10 0 60402 69300.00000 0 -11177726.366 1069297.431 22912114.142 10 0 60402 70200.00000 0 -10818977.285 -1741414.693 23041344.369 10 0 60402 71100.00000 0 -10666492.938 -4559381.001 22723453.761 10 0 60402 72000.00000 0 -10718919.734 -7314931.888 21964536.716 10 0 60402 72900.00000 0 -10962765.686 -9940296.134 20779240.471 10 0 60402 73800.00000 0 -11373022.347 -12372179.380 19190488.744 10 0 60402 74700.00000 0 -11914288.317 -14554162.708 17229045.348 10 0 60402 75600.00000 0 -12542347.612 -16438822.225 14932925.364 10 0 60402 76500.00000 0 -13206136.973 -17989481.853 12346664.356 10 0 60402 77400.00000 0 -13850019.599 -19181526.432 9520459.035 10 0 60402 78300.00000 0 -14416269.547 -20003220.467 6509195.436 10 0 60402 79200.00000 0 -14847661.777 -20455998.342 3371383.132 10 0 60402 80100.00000 0 -15090057.941 -20554214.010 168016.239 10 0 60402 81000.00000 0 -15094877.869 -20324360.978 -3038616.380 10 0 60402 81900.00000 0 -14821351.212 -19803795.795 -6186148.010 10 0 60402 82800.00000 0 -14238452.856 -19039019.474 -9213353.592 10 0 60402 83700.00000 0 -13326439.011 -18083589.975 -12061347.308 10 0 60402 84600.00000 0 -12077917.788 -16995754.647 -14674734.111 10 0 60402 85500.00000 0 -10498407.877 -15835903.326 -17002692.076 99